Estación de Sagrada Familia

Ultimos registro cada 15 minutos 30
Estación Fecha / Hora Temperatura Humedad Lluvia Velocidad Dirección Radiación Presion
30 Sagrada Familia 04-05-2026 07:15 7,7 95 0 0 163 0 1016,6
29 Sagrada Familia 04-05-2026 07:00 7,6 94 0 0 163 0 1016,5
28 Sagrada Familia 04-05-2026 06:45 7,4 93 0 0 163 0 1016,4
27 Sagrada Familia 04-05-2026 06:30 7,6 93 0 0 163 0 1016,4
26 Sagrada Familia 04-05-2026 06:15 7,9 93 0 0 163 0 1016,4
25 Sagrada Familia 04-05-2026 06:00 8,2 93 0 0 163 0 1016,3
24 Sagrada Familia 04-05-2026 05:45 8,4 93 0 0 163 0 1016,1
23 Sagrada Familia 04-05-2026 05:30 8,8 93 0 0 163 0 1016,3
22 Sagrada Familia 04-05-2026 05:15 9,1 93 0 0 163 0 1016,2
21 Sagrada Familia 04-05-2026 05:00 9,4 93 0 0 163 0 1016,2
20 Sagrada Familia 04-05-2026 04:45 9,6 93 0 0 163 0 1016,1
19 Sagrada Familia 04-05-2026 04:30 9,9 93 0 0 163 0 1015,8
18 Sagrada Familia 04-05-2026 04:15 10,1 94 0 0 163 0 1016,1
17 Sagrada Familia 04-05-2026 04:00 10,1 94 0 0 163 0 1016,2
16 Sagrada Familia 04-05-2026 03:45 10,1 94 0 0 163 0 1016,1
15 Sagrada Familia 04-05-2026 03:30 10,2 93 0 0 163 0 1016,4
14 Sagrada Familia 04-05-2026 03:15 10,2 93 0 0 163 0 1016,5
13 Sagrada Familia 04-05-2026 03:00 10,3 93 0 0 163 0 1016,7
12 Sagrada Familia 04-05-2026 02:45 10,5 93 0 0 163 0 1016,8
11 Sagrada Familia 04-05-2026 02:30 10,6 93 0 0 163 0 1016,7
10 Sagrada Familia 04-05-2026 02:15 10,8 93 0 0 163 0 1016,8
9 Sagrada Familia 04-05-2026 02:00 10,8 93 0 0 163 0 1017,2
8 Sagrada Familia 04-05-2026 01:45 10,9 93 0 0 163 0 1017,2
7 Sagrada Familia 04-05-2026 01:30 10,9 93 0 0 163 0 1017,2
6 Sagrada Familia 04-05-2026 01:15 10,9 93 0 0 163 0 1017,4
5 Sagrada Familia 04-05-2026 01:00 10,9 93 0 0 163 0 1017,3
4 Sagrada Familia 04-05-2026 00:45 11 93 0 0 163 0 1017,4
3 Sagrada Familia 04-05-2026 00:30 10,9 93 0 0 163 0 1017,8
2 Sagrada Familia 04-05-2026 00:15 11 92 0 0 163 0 1018
1 Sagrada Familia 04-05-2026 00:00 11,1 93 0 0 163 0 1018,1